Content
SEND FEEDBACK

Daily
Averages
Monthly
Summary
United States of America

VERNON, VERMONT


Home > North America > United States > Vermont
Elevation: 238 feet     Latitude: 42 46N     Longitude: 072 31W

WEATHER
 
SELECT A DAY
Number of Records: 452,701;   Date Range: 1/1/95 - 10/19/14
 
SHARE

PRINT THIS DATA

[ ← Previous Day ]
WEATHER ALMANAC - JANUARY 11, 2014
[ Next Day → ]
[ °C ]   °F
Weather ElementAverageHighLow
Temperature32.6 °F50 °F (7:15 pm) (3:15 am)
Dewpoint29.2 °F46.4 °F (7:15 pm) (7:00 pm)
Humidity86.3 %93 % (4:55 am)81 % (9:15 am)
Barometer29.70 in30.22 in (12:35 am)29.25 in (9:55 pm)
Wind Speed1.8 mph15 mph (11:35 pm)
Wind Gust26.5 mph (11:35 pm)
Weather ElementAverage
Visibility1.8 mi
Wind DirectionNE (41.5 °)

Weather ElementTotal
Precipitation1.21 in
Heating Degree Days40 (Base 65)
Averaged from 71 records on January 11, 2014
WEATHER CONDITIONS BREAKOUT
WIND DIRECTION BREAKOUT
WEATHER BY HOUR - JANUARY 11, 2014
[ °C ]   °F
Local TimeTemperatureDewpointHumidityBarometerVisibilityWind DirectionWind SpeedGust SpeedPrecipitationEventsConditions
12:35 AM28.4 °F24.8 °F86 %30.22 in7.0 miCalmOvercast
12:55 AM28.4 °F24.8 °F86 %30.21 in7.0 miCalmOvercast
1:15 AM28.4 °F24.8 °F86 %30.21 in5.0 miCalmOvercast
1:35 AM28.4 °F24.8 °F86 %30.20 in2.0 miCalmOvercast
1:55 AM28.4 °F24.8 °F86 %30.20 in1.5 miCalmOvercast
2:15 AM28.4 °F24.8 °F86 %30.20 in1.8 miCalm0.01 inOvercast
2:35 AM30.2 °F26.6 °F86 %30.18 in2.0 miCalm0.02 inOvercast
2:55 AM30.2 °F26.6 °F86 %30.17 in1.8 miCalm0.02 inOvercast
3:15 AM0.0 °F0.0 °F30.14 in1.5 miCalmOvercast
3:35 AM30.2 °F26.6 °F86 %30.13 in1.2 miCalm0.01 inOvercast
3:55 AM30.2 °F26.6 °F86 %30.12 in1.5 miCalm0.01 inOvercast
4:15 AM30.2 °F26.6 °F86 %30.10 in1.5 miCalm0.01 inOvercast
4:35 AM30.2 °F26.6 °F86 %30.09 in2.0 miCalm0.02 inOvercast
4:55 AM30.2 °F28.4 °F93 %30.07 in1.8 miCalm0.02 inOvercast
5:15 AM0.0 °F0.0 °F30.05 in1.8 miCalm0.01 inOvercast
5:35 AM0.0 °F0.0 °F30.04 in2.0 miCalm0.01 inOvercast
5:55 AM32.0 °F28.4 °F87 %30.04 in1.8 miCalm0.01 inOvercast
6:15 AM0.0 °F0.0 °F30.02 in1.8 miCalmOvercast
6:35 AM32.0 °F28.4 °F87 %30.01 in1.0 miCalmOvercast
6:55 AM32.0 °F28.4 °F87 %30.00 in1.2 miCalmOvercast
7:15 AM32.0 °F28.4 °F87 %29.98 in0.5 miCalmOvercast
7:35 AM32.0 °F28.4 °F87 %29.95 in0.2 miCalm0.01 inOvercast
7:55 AM32.0 °F28.4 °F87 %29.93 in0.2 miCalm0.01 inOvercast
8:15 AM32.0 °F28.4 °F87 %29.92 in0.2 miCalm0.01 inOvercast
8:35 AM32.0 °F28.4 °F87 %29.91 in0.2 miCalm0.04 inOvercast
8:55 AM32.0 °F28.4 °F87 %29.90 in0.8 miCalm0.07 inOvercast
9:15 AM33.8 °F28.4 °F81 %29.88 in1.2 miCalm0.03 inOvercast
9:35 AM33.8 °F28.4 °F81 %29.88 in1.0 miCalm0.03 inOvercast
9:55 AM33.8 °F28.4 °F81 %29.87 in0.8 miCalm0.04 inOvercast
10:15 AM33.8 °F28.4 °F81 %29.85 in0.8 miCalm0.01 inOvercast
10:35 AM33.8 °F28.4 °F81 %29.83 in0.5 miCalm0.02 inOvercast
10:55 AM33.8 °F28.4 °F81 %29.80 in0.2 miCalm0.04 inOvercast
11:15 AM33.8 °F28.4 °F81 %29.78 in0.8 miCalmOvercast
11:35 AM33.8 °F28.4 °F81 %29.76 in0.5 miCalmOvercast
11:55 AM33.8 °F30.2 °F87 %29.72 in0.5 miCalmOvercast
12:15 PM33.8 °F28.4 °F81 %29.69 in0.5 miCalmOvercast
12:35 PM33.8 °F30.2 °F87 %29.66 in0.8 miNE (40°)3.5 mph0.01 inOvercast
12:55 PM33.8 °F30.2 °F87 %29.64 in0.5 miNE (40°)3.5 mph0.02 inOvercast
1:15 PM33.8 °F30.2 °F87 %29.61 in0.8 miNNE (20°)3.5 mph0.01 inOvercast
1:35 PM33.8 °F30.2 °F87 %29.58 in1.0 miNE (40°)3.5 mph0.02 inOvercast
1:55 PM33.8 °F30.2 °F87 %29.57 in1.0 miCalm0.04 inOvercast
2:15 PM35.6 °F30.2 °F81 %29.54 in0.8 miCalm0.02 inOvercast
2:35 PM35.6 °F30.2 °F81 %29.50 in0.5 miCalm0.03 inOvercast
2:55 PM35.6 °F32.0 °F87 %29.48 in0.5 miNNE (20°)3.5 mph0.04 inOvercast
3:15 PM37.4 °F35.6 °F93 %29.49 in0.2 miCalm0.02 inOvercast
3:35 PM0.0 °F0.0 °F29.46 in0.2 miCalm0.03 inOvercast
3:55 PM0.0 °F0.0 °F29.44 in0.2 miCalm0.04 inOvercast
4:15 PM39.2 °F35.6 °F87 %29.45 in0.2 miEast (100°)3.5 mph0.01 inOvercast
4:35 PM39.2 °F37.4 °F93 %29.43 in0.2 miWNW (300°)3.5 mph0.02 inOvercast
4:55 PM39.2 °F35.6 °F87 %29.41 in0.2 miCalm0.02 inOvercast
5:15 PM39.2 °F35.6 °F87 %29.38 in0.2 miCalm0.01 inOvercast
5:35 PM37.4 °F35.6 °F93 %29.35 in0.5 miCalm0.02 inOvercast
5:55 PM41.0 °F35.6 °F81 %29.36 in0.5 miCalm0.03 inOvercast
6:15 PM42.8 °F39.2 °F87 %29.35 in0.2 miCalm0.01 inOvercast
6:35 PM42.8 °F39.2 °F87 %29.35 in0.2 miCalm0.02 inOvercast
6:55 PM48.2 °F44.6 °F87 %29.33 in0.2 miSSW (200°)8.1 mph0.04 inOvercast
7:15 PM50.0 °F46.4 °F87 %29.35 in0.5 miSouth (190°)6.9 mph0.01 inOvercast
7:35 PM0.0 °F0.0 °F29.33 in4.0 miSouth (180°)6.9 mph0.02 inOvercast
7:55 PM48.2 °F46.4 °F93 %29.33 in0.2 miCalm0.03 inOvercast
8:15 PM46.4 °F42.8 °F87 %29.33 in0.2 miCalm0.01 inOvercast
8:35 PM44.6 °F41.0 °F87 %29.31 in0.2 miCalm0.03 inOvercast
8:55 PM42.8 °F39.2 °F87 %29.30 in0.5 miCalm0.04 inOvercast
9:15 PM48.2 °F44.6 °F87 %29.30 in0.5 miSouth (170°)9.2 mph0.01 inOvercast
9:35 PM50.0 °F46.4 °F87 %29.27 in5.0 miSouth (170°)6.9 mph0.02 inOvercast
9:55 PM48.2 °F46.4 °F93 %29.25 in5.0 miSouth (190°)5.8 mph0.03 inOvercast
10:15 PM44.6 °F41.0 °F87 %29.27 in0.5 miSouth (190°)8.1 mph0.01 inOvercast
10:35 PM50.0 °F46.4 °F87 %29.26 in10.0 miSSW (200°)8.1 mph0.02 inMostly Cloudy
10:55 PM48.2 °F46.4 °F93 %29.27 in10.0 miSSW (210°)8.1 mph0.03 inOvercast
11:15 PM0.0 °F0.0 °F29.27 in8.0 miWSW (240°)10.4 mphOvercast
11:35 PM50.0 °F46.4 °F87 %29.27 in9.0 miSSW (200°)15.0 mph26.5 mph0.01 inMostly Cloudy
11:55 PM50.0 °F44.6 °F82 %29.30 in10.0 miWSW (250°)9.2 mph23.0 mph0.02 inOvercast
Hourly data recorded from KEEN, located miles away from Vernon, Vermont







STORIES FROM OUR PARTNERS